sat.trackr.live / text

‹ back to catalog

STARLINK-5100

NORAD 55495 · 2023-015AY

PAYLOAD ACTIVE UNKNOWN

§ Identity

Operator
Country
US
Launch date
2023-02-02
Launch site
AFETR
Launch vehicle
Mass (kg)
RCS (m²)

Purposes: comms

External: N2YO · Heavens-Above · Gunter

§ Orbital elements

Epoch: 2026-05-24T23:48:39.996576Z

Period
94.27 min
Inclination
43.0030°
Eccentricity
0.0001291
Mean motion
15.27577367 rev/d
Perigee alt
482.2 km
Apogee alt
483.9 km
Semi-major
6,861.2 km
B*
6.0366e-5
RAAN
250.5835°
Arg perigee
252.9864°
Mean anomaly
107.0846°
Rev number
18,247

§ Raw data

STARLINK-51001 55495U 23015AY  26144.99212959  .00001399  00000+0  60366-4 0  99982 55495  43.0030 250.5835 0001291 252.9864 107.0846 15.27577367182475

JSON: /api/v1/satellites/55495 · /tle

For live sub-satellite position, see the globe view (requires WebGL).

§ Visibility from observer

Set your observer location to see the next 7 days of passes ≥ 10°. The values pass through the URL so the page stays shareable.

No JS? Fill the form by hand. The geolocation button needs JavaScript.